Temp
7 7 7 7 7 7 7 7 7 7 7 7 7 7 7 7 7 7 7 7 7 7 7 7 7 7 7 7 7 7 7 7 7 6 6 6 7 7 7 7 6 6 6 6 6 6 6 6 6 7 7 7 7 6 6 6 6 6 6 6 6 6 6 6 6 6 5 5 5
7 7 7 7 7 7 7 7 7 7 7 7 7 7 7 7 7 7 7 7 7 7 7 7 7 7 7 7 7 7 6 6 6 6 6 6 6 6 6 6 6 6 6 6 6 6 6 6 6 6 6 6 6 6 6 6 5 5 5 5 6 6 6 6 5 5 5 5 5
7 7 7 7 7 7 7 7 7 7 7 7 7 7 7 7 7 7 7 7 7 7 7 7 7 6 6 6 6 6 6 6 6 6 6 6 6 6 6 6 6 6 6 6 6 6 6 6 6 6 6 6 6 6 5 5 5 5 5 5 5 5 5 5 5 5 5 5 4
7 7 7 7 7 7 7 6 6 6 6 7 7 7 7 7 7 7 7 7 7 7 7 7 6 6 6 6 6 6 6 6 6 6 6 6 6 6 6 6 6 6 6 6 6 6 6 6 6 6 6 6 5 5 5 5 5 5 5 5 5 5 5 5 5 5 5 4 4
7 7 7 7 6 6 6 6 6 6 6 6 6 6 6 6 6 6 7 7 7 7 6 6 6 6 6 6 6 6 6 6 6 6 6 6 6 6 6 6 6 5 5 5 5 5 5 5 6 6 6 5 5 5 5 5 5 5 5 5 5 5 5 5 5 5 4 4 4
6 6 6 6 6 6 6 6 6 6 6 6 6 6 6 6 6 6 6 6 6 6 6 6 6 6 6 6 6 6 6 6 6 6 6 6 6 6 6 6 5 5 5 5 5 5 5 5 5 5 5 5 5 5 5 5 5 5 5 5 5 5 5 5 4 4 4 4 4
6 6 6 6 6 6 6 6 6 6 6 6 6 6 6 6 6 6 6 6 6 6 6 6 6 6 6 6 6 6 6 6 6 6 5 5 5 5 5 5 5 5 5 5 5 5 5 5 5 5 5 5 5 5 5 5 5 4 4 4 4 4 4 4 4 4 4 4 4
6 6 6 6 6 6 6 6 6 6 6 6 6 6 6 6 6 6 6 6 6 6 6 6 6 6 6 6 6 6 6 6 5 5 5 5 5 5 5 5 5 5 5 5 5 5 5 5 5 5 5 5 5 5 5 5 5 4 4 4 4 4 4 4 4 4 4 4 4
5 5 5 5 5 5 5 6 6 6 6 6 6 6 6 6 6 6 6 6 6 6 6 6 6 6 6 6 6 6 5 5 5 5 5 5 5 5 5 5 5 5 5 5 5 5 5 5 5 5 5 5 5 5 5 5 5 4 4 4 4 4 4 4 4 4 4 4 4
5 5 5 5 5 5 5 5 5 5 5 5 5 5 5 6 6 6 6 6 6 6 6 6 5 5 5 5 5 5 5 5 5 5 5 5 5 5 5 5 5 5 5 5 5 5 5 5 5 5 5 5 5 5 5 5 5 4 4 4 4 4 4 4 4 4 4 4 4
5 5 5 5 5 5 5 5 5 5 5 5 5 5 5 5 5 5 5 5 5 5 5 5 5 5 5 5 5 5 5 5 5 5 5 5 5 5 5 5 5 5 5 5 5 5 5 5 5 5 5 5 5 5 5 4 4 4 4 4 4 4 4 4 4 4 4 4 4
5 5 5 5 5 5 5 5 5 5 5 5 5 5 5 5 5 5 5 5 5 5 5 5 5 5 5 5 5 5 5 5 5 5 5 5 5 5 5 5 5 5 5 5 5 5 5 5 5 5 5 5 4 4 4 4 4 4 4 4 4 4 4 4 3 3 3 3 3
5 5 5 5 5 5 5 5 5 5 5 5 5 5 5 5 5 5 5 5 5 5 5 5 5 5 5 5 4 4 4 4 4 4 4 4 4 4 4 4 5 5 4 4 4 4 4 4 4 4 4 4 4 4 4 4 4 4 4 4 4 4 3 3 3 3 3 3 3
5 5 5 5 5 5 5 5 5 5 5 5 5 5 5 5 5 5 5 5 5 4 4 4 4 4 4 4 4 4 4 4 4 4 4 4 4 4 4 4 4 4 4 4 4 4 4 4 4 4 4 4 4 4 4 4 4 4 4 4 3 3 3 3 3 3 3 3 3
6 6 5 5 5 5 5 5 5 5 5 5 4 4 4 4 4 4 4 4 4 4 4 4 4 4 4 4 4 4 4 4 4 4 4 4 4 4 4 4 4 4 4 4 4 4 4 4 4 4 4 4 4 4 4 4 4 4 3 3 3 3 3 3 3 3 3 3 3
6 6 6 5 5 5 5 5 5 5 5 4 4 4 4 4 4 4 4 4 4 4 4 4 4 4 4 4 4 4 4 4 4 4 4 4 4 4 4 4 4 4 4 4 4 4 4 4 4 4 4 4 4 4 3 3 3 3 3 3 3 3 3 3 3 3 3 3 3
6 6 6 6 6 5 5 5 5 5 5 4 4 4 4 4 4 4 4 4 4 4 4 4 4 4 3 3 3 4 4 4 4 4 3 3 3 3 3 3 3 3 3 3 3 3 3 3 3 3 3 3 3 3 3 3 3 3 3 3 3 3 2 2 2 2 2 3 3
6 6 6 6 6 6 5 5 5 5 5 5 4 4 4 4 4 4 4 4 4 3 3 3 3 3 3 3 3 3 3 3 3 3 3 3 3 3 3 3 3 3 3 3 3 3 3 3 3 3 3 3 3 3 3 3 3 3 3 2 2 2 2 2 2 2 2 2 3
6 6 6 6 6 6 5 5 5 5 5 5 5 4 4 4 4 4 4 4 3 3 3 3 3 3 3 3 3 3 3 3 3 3 3 3 3 3 3 3 3 3 3 3 3 3 3 3 3 3 3 3 2 2 2 2 2 2 2 2 2 2 2 2 2 2 2 2 2
6 6 6 6 6 5 5 5 5 5 5 5 5 5 4 4 4 4 4 4 3 3 3 3 3 3 3 3 3 3 3 3 3 3 3 3 3 2 2 2 2 2 2 2 2 2 2 2 2 2 2 2 2 2 2 2 2 2 2 2 2 2 2 2 2 2 2 2 2
6 5 5 5 5 5 5 5 5 5 5 5 5 5 5 4 4 4 4 4 3 3 3 3 3 3 3 2 2 2 2 2 2 2 2 2 2 2 2 2 2 2 2 2 2 2 2 2 2 2 2 2 2 2 2 2 2 2 2 2 2 2 2 2 2 1 1 2 2
5 5 5 5 5 5 5 5 5 5 5 5 5 5 5 4 4 4 4 4 4 3 3 3 3 3 2 2 2 2 2 2 2 2 2 2 2 2 2 2 2 2 2 2 2 2 2 2 2 2 2 1 1 1 1 1 1 1 1 1 1 1 1 1 1 1 1 1 1
5 5 5 5 5 5 5 5 5 5 5 5 5 5 5 4 4 4 4 4 4 4 3 3 3 3 2 2 2 2 2 2 2 2 2 2 2 2 2 2 2 2 2 2 1 1 1 1 1 1 1 1 1 1 1 1 1 1 1 1 1 1 1 1 1 1 1 1 1
5 5 5 5 5 5 5 5 5 5 5 5 5 5 4 4 4 4 4 4 4 4 3 3 3 3 2 2 2 2 2 2 2 2 2 2 1 1 1 1 1 1 1 1 1 1 1 1 1 1 1 1 1 1 1 1 1 1 1 1 1 1 1 1 1 1 1 1 1
5 5 5 5 5 4 4 4 5 5 5 5 4 4 4 4 4 4 4 4 4 4 3 3 3 3 3 2 2 2 2 2 2 2 1 1 1 1 1 1 1 1 1 1 1 1 1 1 1 1 1 1 1 1 1 1 1 1 1 1 1 1 1 1 1 1 1 1 1
5 5 5 5 5 4 4 4 4 4 4 4 4 4 4 4 4 4 4 4 4 4 3 3 3 3 3 2 2 2 2 2 2 2 1 1 1 1 1 1 1 1 1 1 1 1 1 1 1 1 1 0 0 0 0 0 0 0 0 0 1 1 1 1 0 0 0 0 0
5 5 5 5 5 4 4 4 4 4 4 4 4 4 4 4 4 4 4 4 4 4 3 3 3 3 3 2 2 2 2 2 2 1 1 1 1 1 1 1 1 1 1 1 0 0 0 0 0 0 0 0 0 0 0 0 -0 0 0 0 0 0 0 0 0 0 -0 -0 0
5 5 5 4 4 4 4 4 4 4 4 4 4 4 4 4 4 4 4 4 4 4 3 3 3 3 3 2 2 2 2 2 1 1 1 1 1 1 1 1 1 1 0 0 0 0 0 0 0 0 0 0 0 0 0 0 -0 -0 -0 0 0 0 0 0 0 -0 -0 -0 -0
5 4 4 4 4 4 4 4 4 4 4 4 4 4 4 4 4 4 4 4 4 4 3 3 3 3 2 2 2 2 2 2 1 1 1 1 1 1 1 1 1 0 0 0 0 0 0 0 -0 -0 -0 -0 -0 0 0 0 0 0 0 0 0 0 -0 -0 -0 -0 -1 -0 -0
4 4 4 4 4 4 4 4 4 4 4 4 3 3 3 3 4 4 4 4 4 3 3 3 3 3 3 2 2 2 2 1 1 1 1 1 1 1 1 1 0 0 0 -0 -0 -0 -0 -0 -0 -0 -1 -1 -1 -0 -0 0 0 0 0 0 0 -0 -0 -0 -1 -1 -1 -1 -1
4 4 4 4 4 4 4 4 4 4 4 3 3 3 3 3 3 3 4 4 3 3 3 3 3 3 3 2 2 2 2 1 1 1 1 1 1 1 0 0 0 -0 -0 -0 -0 -0 -0 -0 -0 -1 -1 -1 -1 -1 -1 -0 -0 0 0 0 -0 -0 -0 -1 -1 -1 -1 -1 -1
4 4 4 4 4 4 4 4 4 3 3 3 3 3 3 3 3 3 3 3 3 3 3 3 3 3 2 2 2 2 1 1 1 1 1 1 1 0 0 0 0 -0 -0 -0 -1 -1 -1 -1 -1 -1 -1 -1 -1 -1 -1 -1 -1 -0 -0 -0 -0 -1 -1 -1 -1 -1 -1 -1 -1
4 4 4 4 4 4 4 3 3 3 3 3 3 3 3 3 3 3 3 3 3 3 3 3 3 2 2 2 2 2 2 1 1 1 1 1 0 0 0 0 -0 -0 -0 -1 -1 -1 -1 -1 -1 -1 -1 -1 -1 -2 -2 -1 -1 -1 -1 -1 -1 -1 -1 -1 -1 -1 -1 -1 -1
4 4 4 4 4 4 4 3 3 3 3 3 3 3 3 3 3 3 3 3 3 3 3 3 2 2 2 2 2 2 2 1 1 1 1 0 0 0 0 0 -0 -0 -1 -1 -1 -1 -1 -1 -1 -1 -1 -1 -1 -2 -2 -2 -1 -1 -1 -1 -1 -1 -1 -1 -1 -1 -1 -1 -1
3 3 3 4 4 4 4 3 3 3 3 3 4 3 3 3 3 3 3 3 3 3 3 3 2 2 2 2 2 2 2 2 1 1 1 0 0 0 0 0 -0 -1 -1 -1 -1 -1 -1 -1 -1 -1 -1 -2 -2 -2 -2 -2 -1 -1 -1 -1 -1 -1 -1 -1 -1 -2 -2 -2 -2
3 3 3 3 4 4 4 3 3 3 3 4 4 4 3 3 3 3 3 3 2 3 3 2 2 2 2 2 2 2 2 1 1 1 1 0 0 0 0 0 -0 -1 -1 -1 -1 -1 -1 -1 -1 -2 -2 -2 -2 -2 -2 -2 -1 -1 -1 -1 -1 -1 -1 -1 -2 -2 -2 -2 -2
4 3 3 4 4 4 4 3 3 3 4 4 4 3 3 3 3 3 2 2 2 2 2 2 2 2 2 2 2 2 1 1 1 1 1 1 1 1 1 0 0 -0 -1 -1 -1 -1 -1 -1 -2 -2 -2 -2 -2 -2 -2 -2 -2 -1 -1 -1 -1 -1 -1 -1 -2 -2 -2 -2 -2
4 4 4 4 4 4 4 3 3 3 4 3 3 3 3 3 3 3 2 2 2 2 2 2 2 2 2 2 2 1 1 1 1 1 1 1 1 1 0 0 0 -0 -1 -1 -1 -1 -1 -1 -2 -2 -2 -2 -2 -2 -2 -2 -2 -1 -1 -1 -1 -1 -1 -1 -2 -2 -2 -2 -2
4 4 4 4 4 4 4 3 3 3 3 3 3 3 3 3 3 3 2 2 2 2 2 2 2 2 2 2 2 2 1 1 1 1 1 1 1 0 0 0 0 -0 -1 -1 -1 -1 -1 -1 -2 -2 -2 -2 -2 -2 -2 -2 -2 -1 -1 -1 -1 -1 -1 -1 -2 -2 -2 -2 -2
4 4 4 4 4 4 3 3 3 3 3 3 3 3 3 3 3 2 2 2 2 2 2 2 2 2 2 2 2 2 2 1 1 1 1 1 1 0 0 0 0 -0 -0 -1 -1 -1 -1 -1 -1 -2 -2 -2 -2 -2 -2 -2 -2 -1 -1 -1 -1 -1 -1 -2 -2 -2 -2 -2 -3
4 4 4 4 4 4 3 3 3 3 3 3 3 3 3 2 2 2 2 2 2 2 2 2 2 2 2 1 1 2 2 2 1 1 1 1 1 0 0 0 0 0 -0 -1 -1 -1 -1 -1 -2 -2 -2 -2 -2 -2 -2 -2 -2 -1 -1 -1 -1 -1 -1 -2 -2 -2 -2 -3 -3
Height
1510 1510 1510 1510 1510 1510 1509 1509 1509 1509 1509 1509 1509 1509 1509 1509 1509 1508 1508 1508 1508 1508 1508 1508 1508 1507 1507 1507 1507 1507 1506 1506 1506 1506 1506 1505 1505 1505 1505 1505 1505 1505 1504 1504 1503 1503 1503 1503 1502 1502 1502 1502 1502 1501 1501 1501 1501 1500 1500 1499 1499 1499 1499 1498 1498 1498 1498 1498 1497
1509 1509 1509 1509 1509 1509 1508 1508 1508 1508 1508 1508 1508 1508 1508 1508 1508 1508 1507 1507 1507 1507 1507 1507 1507 1506 1506 1506 1506 1506 1506 1505 1505 1505 1505 1504 1504 1504 1504 1504 1504 1503 1503 1503 1502 1502 1502 1502 1501 1501 1501 1501 1501 1501 1500 1500 1500 1499 1499 1498 1498 1498 1498 1498 1497 1497 1497 1497 1496
1508 1508 1508 1508 1508 1508 1508 1508 1508 1507 1507 1507 1507 1507 1507 1507 1507 1507 1507 1506 1506 1506 1506 1506 1506 1505 1505 1505 1505 1505 1505 1504 1504 1504 1503 1503 1503 1503 1503 1503 1503 1502 1502 1502 1501 1501 1501 1501 1500 1500 1500 1500 1500 1500 1500 1499 1499 1498 1498 1498 1497 1497 1497 1497 1496 1496 1496 1496 1495
1507 1507 1507 1507 1507 1507 1507 1507 1507 1507 1506 1506 1506 1506 1506 1506 1506 1506 1506 1506 1506 1505 1505 1505 1505 1504 1504 1504 1504 1503 1503 1503 1503 1503 1502 1502 1502 1502 1502 1501 1501 1501 1501 1501 1500 1500 1500 1500 1500 1499 1499 1499 1499 1499 1499 1498 1498 1498 1497 1497 1496 1496 1496 1496 1496 1495 1495 1495 1494
1506 1506 1506 1506 1506 1506 1506 1506 1506 1506 1506 1506 1506 1506 1505 1505 1505 1505 1505 1505 1504 1504 1504 1504 1503 1503 1503 1503 1503 1502 1502 1502 1502 1501 1501 1501 1501 1500 1500 1500 1500 1500 1500 1499 1499 1499 1499 1499 1499 1498 1498 1498 1498 1498 1498 1498 1497 1497 1496 1496 1496 1495 1495 1495 1495 1495 1494 1494 1493
1505 1505 1505 1505 1505 1505 1505 1505 1505 1505 1505 1505 1505 1505 1504 1504 1504 1504 1504 1504 1503 1503 1503 1503 1503 1502 1502 1502 1501 1501 1501 1501 1501 1500 1500 1500 1499 1499 1499 1499 1499 1499 1498 1498 1498 1498 1498 1498 1498 1498 1497 1497 1497 1497 1497 1497 1496 1496 1495 1495 1495 1494 1494 1494 1494 1493 1493 1493 1492
1504 1504 1504 1504 1504 1504 1504 1504 1504 1504 1504 1504 1504 1503 1503 1503 1503 1503 1503 1503 1502 1502 1502 1502 1501 1501 1501 1501 1500 1500 1500 1500 1499 1499 1499 1499 1498 1498 1498 1498 1498 1498 1497 1497 1497 1497 1497 1497 1497 1496 1496 1496 1496 1496 1496 1496 1495 1495 1494 1494 1493 1493 1493 1493 1493 1493 1492 1492 1491
1504 1503 1503 1503 1503 1503 1503 1503 1503 1503 1503 1503 1503 1503 1502 1502 1502 1502 1502 1502 1501 1501 1501 1501 1500 1500 1500 1499 1499 1499 1499 1498 1498 1498 1498 1498 1497 1497 1497 1497 1497 1497 1496 1496 1496 1496 1496 1496 1496 1495 1495 1495 1495 1495 1495 1495 1494 1494 1493 1493 1493 1492 1492 1492 1492 1491 1491 1491 1490
1503 1503 1502 1502 1502 1502 1502 1502 1502 1502 1502 1502 1502 1501 1501 1501 1501 1501 1501 1501 1500 1500 1500 1499 1499 1499 1499 1498 1498 1498 1498 1497 1497 1497 1497 1496 1496 1496 1496 1496 1496 1496 1495 1495 1495 1495 1495 1495 1494 1494 1494 1494 1494 1494 1493 1493 1493 1493 1492 1492 1492 1491 1491 1491 1491 1490 1490 1489 1489
1502 1501 1501 1501 1501 1501 1501 1501 1501 1501 1501 1501 1501 1500 1500 1500 1500 1500 1500 1499 1499 1499 1499 1498 1498 1498 1498 1497 1497 1497 1496 1496 1496 1496 1496 1496 1495 1495 1495 1495 1495 1494 1494 1494 1494 1494 1494 1493 1493 1493 1493 1493 1493 1492 1492 1492 1492 1492 1491 1491 1491 1490 1490 1490 1490 1489 1489 1488 1488
1501 1500 1500 1500 1500 1500 1500 1500 1500 1500 1499 1499 1499 1499 1499 1499 1499 1498 1498 1498 1498 1498 1497 1497 1497 1497 1496 1496 1496 1496 1496 1495 1495 1495 1495 1494 1494 1494 1494 1494 1494 1493 1493 1493 1493 1493 1492 1492 1492 1492 1492 1492 1491 1491 1491 1491 1491 1491 1490 1490 1489 1489 1489 1488 1488 1488 1488 1487 1486
1499 1499 1499 1499 1499 1499 1499 1499 1498 1498 1498 1498 1498 1498 1498 1498 1497 1497 1497 1497 1497 1496 1496 1496 1496 1496 1496 1495 1495 1495 1495 1494 1494 1494 1494 1493 1493 1493 1493 1493 1493 1492 1492 1492 1492 1492 1491 1491 1491 1491 1490 1490 1490 1490 1490 1490 1489 1489 1489 1489 1488 1488 1488 1487 1487 1486 1486 1486 1485
1498 1498 1498 1498 1498 1498 1497 1497 1497 1497 1497 1497 1497 1497 1496 1496 1496 1496 1496 1496 1496 1495 1495 1495 1495 1494 1494 1494 1494 1494 1493 1493 1493 1493 1493 1493 1492 1492 1492 1492 1491 1491 1491 1491 1491 1490 1490 1490 1490 1489 1489 1489 1489 1489 1488 1488 1488 1488 1487 1487 1487 1486 1486 1486 1485 1485 1485 1484 1484
1497 1497 1496 1496 1496 1496 1496 1496 1496 1496 1496 1496 1495 1495 1495 1495 1495 1495 1494 1494 1494 1494 1494 1493 1493 1493 1493 1493 1493 1493 1492 1492 1492 1492 1492 1491 1491 1491 1491 1491 1490 1490 1490 1490 1490 1489 1489 1489 1488 1488 1488 1488 1488 1487 1487 1487 1487 1486 1486 1486 1485 1485 1485 1484 1484 1483 1483 1483 1482
1496 1496 1495 1495 1495 1495 1495 1495 1495 1495 1494 1494 1494 1494 1494 1493 1493 1493 1493 1493 1493 1493 1492 1492 1492 1492 1492 1491 1491 1491 1491 1491 1491 1491 1490 1490 1490 1490 1490 1489 1489 1489 1489 1489 1488 1488 1488 1488 1487 1487 1487 1487 1486 1486 1486 1486 1485 1485 1485 1484 1484 1483 1483 1483 1482 1482 1481 1481 1481
1495 1494 1494 1494 1494 1494 1493 1493 1493 1493 1493 1493 1493 1493 1492 1492 1492 1492 1492 1491 1491 1491 1491 1491 1491 1490 1490 1490 1490 1490 1490 1489 1489 1489 1489 1489 1489 1488 1488 1488 1488 1488 1487 1487 1487 1487 1487 1486 1486 1486 1486 1485 1485 1485 1484 1484 1484 1483 1483 1483 1483 1482 1482 1481 1481 1480 1480 1480 1479
1493 1493 1493 1493 1493 1492 1492 1492 1492 1492 1491 1491 1491 1491 1491 1491 1491 1490 1490 1490 1490 1490 1489 1489 1489 1489 1489 1489 1488 1488 1488 1488 1488 1488 1487 1487 1487 1487 1487 1487 1486 1486 1486 1486 1486 1485 1485 1485 1485 1484 1484 1484 1483 1483 1483 1482 1482 1482 1482 1481 1481 1481 1480 1480 1479 1479 1478 1478 1478
1492 1492 1492 1491 1491 1491 1491 1491 1490 1490 1490 1490 1490 1490 1489 1489 1489 1489 1489 1489 1488 1488 1488 1488 1488 1488 1487 1487 1487 1487 1487 1486 1486 1486 1486 1486 1486 1485 1485 1485 1485 1485 1484 1484 1484 1484 1484 1483 1483 1483 1483 1482 1482 1481 1481 1481 1481 1480 1480 1480 1479 1479 1479 1478 1478 1478 1477 1477 1477
1491 1491 1491 1490 1490 1490 1490 1489 1489 1489 1489 1488 1488 1488 1488 1488 1488 1487 1487 1487 1487 1487 1487 1486 1486 1486 1486 1486 1486 1485 1485 1485 1485 1485 1484 1484 1484 1484 1484 1483 1483 1483 1483 1483 1482 1482 1482 1482 1481 1481 1481 1481 1480 1480 1480 1479 1479 1479 1479 1478 1478 1478 1477 1477 1476 1476 1476 1476 1476
1490 1489 1489 1489 1489 1488 1488 1488 1488 1488 1487 1487 1487 1487 1487 1486 1486 1486 1486 1486 1486 1485 1485 1485 1485 1484 1484 1484 1484 1484 1484 1483 1483 1483 1483 1483 1483 1482 1482 1482 1482 1481 1481 1481 1481 1481 1480 1480 1480 1480 1479 1479 1479 1478 1478 1478 1478 1477 1477 1477 1477 1476 1476 1476 1475 1475 1475 1475 1474
1488 1488 1488 1488 1487 1487 1487 1487 1486 1486 1486 1486 1486 1486 1485 1485 1485 1484 1484 1484 1484 1484 1483 1483 1483 1483 1483 1483 1483 1482 1482 1482 1482 1481 1481 1481 1481 1481 1481 1480 1480 1480 1480 1479 1479 1479 1479 1478 1478 1478 1478 1477 1477 1477 1477 1476 1476 1476 1476 1475 1475 1475 1475 1474 1474 1474 1473 1473 1473
1487 1487 1487 1486 1486 1486 1485 1485 1485 1485 1485 1484 1484 1484 1484 1484 1483 1483 1483 1483 1482 1482 1482 1482 1482 1482 1481 1481 1481 1481 1481 1480 1480 1480 1480 1480 1479 1479 1479 1479 1478 1478 1478 1478 1478 1477 1477 1477 1477 1476 1476 1476 1476 1475 1475 1475 1475 1474 1474 1474 1473 1473 1473 1473 1473 1472 1472 1472 1471
1486 1486 1485 1485 1485 1484 1484 1484 1483 1483 1483 1483 1483 1483 1482 1482 1482 1482 1481 1481 1481 1481 1481 1480 1480 1480 1480 1480 1479 1479 1479 1479 1478 1478 1478 1478 1478 1478 1477 1477 1477 1477 1476 1476 1476 1476 1476 1475 1475 1475 1475 1474 1474 1474 1473 1473 1473 1473 1473 1472 1472 1472 1472 1471 1471 1471 1471 1470 1470
1484 1484 1484 1484 1483 1483 1483 1482 1482 1482 1481 1481 1481 1481 1481 1481 1480 1480 1480 1480 1479 1479 1479 1479 1479 1478 1478 1478 1478 1477 1477 1477 1477 1477 1477 1476 1476 1476 1476 1476 1475 1475 1475 1475 1475 1474 1474 1474 1473 1473 1473 1473 1472 1472 1472 1472 1472 1471 1471 1471 1471 1470 1470 1470 1470 1469 1469 1469 1468
1482 1482 1482 1482 1482 1481 1481 1481 1481 1480 1480 1480 1480 1479 1479 1479 1479 1479 1478 1478 1478 1478 1478 1477 1477 1477 1477 1476 1476 1476 1476 1475 1475 1475 1475 1475 1475 1474 1474 1474 1474 1474 1473 1473 1473 1473 1473 1472 1472 1472 1471 1471 1471 1471 1470 1470 1470 1470 1470 1469 1469 1469 1469 1469 1468 1468 1468 1467 1467
1480 1480 1480 1480 1480 1480 1479 1479 1479 1479 1479 1478 1478 1478 1478 1477 1477 1477 1477 1477 1476 1476 1476 1476 1476 1475 1475 1475 1474 1474 1474 1474 1474 1473 1473 1473 1473 1473 1472 1472 1472 1472 1472 1472 1472 1472 1471 1471 1471 1470 1470 1470 1470 1469 1469 1469 1468 1468 1468 1468 1468 1468 1467 1467 1467 1466 1466 1466 1466
1478 1478 1478 1478 1477 1477 1477 1477 1477 1477 1477 1477 1477 1476 1476 1476 1475 1475 1475 1475 1475 1475 1474 1474 1474 1474 1473 1473 1473 1473 1473 1472 1472 1472 1472 1471 1471 1471 1471 1471 1471 1471 1471 1471 1470 1470 1470 1469 1469 1469 1468 1468 1468 1468 1468 1467 1467 1467 1466 1466 1466 1466 1466 1466 1465 1465 1465 1464 1464
1476 1476 1475 1475 1475 1475 1475 1475 1475 1475 1475 1475 1475 1475 1474 1474 1473 1473 1473 1473 1473 1473 1473 1472 1472 1472 1472 1471 1471 1471 1471 1471 1471 1470 1470 1470 1470 1469 1469 1469 1469 1469 1469 1469 1469 1468 1468 1468 1468 1467 1467 1466 1466 1466 1466 1466 1466 1465 1465 1465 1465 1465 1464 1464 1464 1464 1463 1463 1463
1474 1473 1473 1473 1473 1473 1473 1473 1473 1473 1473 1473 1473 1473 1472 1472 1472 1472 1471 1471 1471 1471 1471 1471 1470 1470 1470 1470 1470 1470 1469 1469 1469 1469 1468 1468 1468 1468 1468 1468 1468 1467 1467 1467 1467 1467 1466 1466 1466 1466 1465 1465 1464 1464 1464 1464 1464 1464 1464 1463 1463 1463 1463 1463 1463 1462 1462 1462 1461
1472 1471 1471 1471 1471 1471 1471 1471 1471 1471 1471 1471 1471 1471 1470 1470 1470 1470 1470 1470 1470 1469 1469 1469 1468 1468 1468 1468 1468 1468 1468 1467 1467 1467 1467 1466 1466 1466 1466 1466 1466 1466 1466 1466 1465 1465 1465 1465 1464 1464 1464 1463 1463 1462 1462 1462 1462 1462 1462 1462 1462 1462 1461 1461 1461 1461 1461 1460 1460
1470 1469 1469 1469 1468 1468 1468 1468 1468 1468 1468 1468 1468 1468 1468 1468 1468 1468 1468 1468 1468 1468 1467 1467 1466 1466 1466 1466 1466 1466 1466 1466 1465 1465 1465 1465 1465 1464 1464 1464 1464 1464 1464 1464 1464 1463 1463 1463 1463 1463 1462 1462 1461 1461 1461 1461 1461 1461 1461 1461 1460 1460 1460 1460 1459 1459 1459 1459 1459
1468 1467 1467 1467 1466 1466 1466 1466 1466 1466 1466 1466 1466 1466 1466 1466 1466 1466 1466 1466 1466 1466 1466 1465 1465 1464 1464 1464 1464 1464 1464 1463 1463 1463 1463 1463 1463 1463 1463 1463 1463 1463 1463 1462 1462 1462 1462 1461 1461 1461 1461 1461 1460 1460 1459 1459 1459 1459 1459 1459 1459 1459 1458 1458 1458 1458 1458 1457 1457
1466 1465 1465 1464 1464 1464 1464 1463 1463 1463 1463 1463 1463 1463 1463 1463 1464 1464 1464 1464 1464 1464 1464 1463 1463 1463 1462 1462 1462 1462 1462 1462 1461 1461 1461 1461 1461 1461 1461 1461 1461 1461 1461 1461 1460 1460 1460 1460 1460 1459 1459 1459 1458 1458 1458 1457 1457 1457 1457 1457 1457 1457 1457 1457 1456 1456 1456 1456 1456
1464 1463 1463 1462 1462 1462 1461 1461 1461 1460 1460 1460 1460 1461 1461 1461 1461 1461 1462 1462 1462 1462 1461 1461 1461 1461 1461 1460 1460 1460 1460 1460 1460 1460 1459 1459 1459 1459 1459 1459 1459 1459 1459 1459 1458 1458 1458 1458 1458 1458 1457 1457 1457 1456 1456 1456 1455 1455 1455 1455 1455 1455 1455 1455 1455 1455 1455 1455 1455
1461 1461 1461 1460 1460 1460 1459 1459 1458 1458 1458 1458 1458 1458 1458 1459 1459 1459 1460 1460 1459 1459 1459 1459 1459 1459 1458 1458 1458 1458 1458 1458 1458 1458 1458 1457 1457 1457 1457 1457 1457 1457 1457 1457 1457 1456 1456 1456 1456 1456 1456 1455 1455 1455 1454 1454 1454 1454 1454 1454 1454 1454 1454 1454 1454 1454 1453 1453 1453
1459 1459 1459 1458 1458 1458 1457 1457 1456 1456 1456 1456 1456 1456 1456 1456 1457 1457 1457 1457 1457 1457 1457 1457 1457 1457 1456 1456 1456 1456 1456 1456 1456 1456 1456 1455 1455 1455 1455 1455 1455 1456 1456 1455 1455 1455 1455 1454 1454 1454 1454 1453 1453 1453 1453 1452 1452 1452 1452 1452 1452 1452 1452 1452 1452 1452 1452 1452 1452
1458 1457 1457 1457 1456 1456 1456 1455 1455 1454 1454 1454 1454 1454 1454 1454 1454 1455 1455 1455 1455 1455 1455 1455 1455 1455 1454 1454 1454 1454 1454 1454 1454 1453 1453 1453 1453 1453 1453 1453 1453 1454 1454 1453 1453 1453 1453 1453 1453 1452 1452 1452 1451 1451 1451 1451 1451 1451 1451 1450 1450 1451 1451 1451 1451 1451 1451 1451 1450
1456 1456 1455 1455 1455 1454 1454 1453 1453 1453 1452 1452 1452 1452 1452 1452 1452 1452 1452 1453 1452 1452 1452 1453 1453 1452 1452 1452 1452 1452 1452 1452 1451 1451 1451 1451 1451 1451 1451 1451 1451 1452 1452 1452 1451 1451 1451 1451 1451 1451 1450 1450 1450 1449 1449 1449 1449 1449 1449 1449 1449 1449 1449 1449 1449 1449 1449 1449 1449
1455 1454 1454 1453 1453 1453 1452 1452 1451 1451 1451 1451 1450 1450 1450 1450 1450 1450 1450 1450 1450 1450 1450 1450 1450 1450 1450 1450 1450 1450 1450 1450 1450 1449 1449 1449 1449 1449 1449 1449 1449 1450 1450 1450 1450 1449 1449 1449 1449 1449 1449 1448 1448 1448 1448 1448 1448 1447 1447 1447 1447 1447 1447 1448 1448 1448 1448 1447 1447
1453 1453 1452 1452 1451 1451 1450 1450 1450 1449 1449 1449 1448 1448 1448 1448 1448 1448 1448 1448 1448 1448 1448 1448 1448 1448 1448 1448 1448 1448 1448 1448 1448 1447 1447 1447 1447 1447 1447 1447 1447 1448 1448 1448 1448 1448 1447 1447 1447 1447 1447 1447 1446 1446 1446 1446 1446 1446 1446 1446 1446 1446 1446 1446 1446 1446 1446 1446 1446
1451 1451 1451 1450 1450 1449 1449 1448 1448 1447 1447 1447 1446 1446 1446 1446 1446 1446 1446 1445 1445 1446 1446 1446 1446 1446 1446 1446 1446 1445 1446 1446 1446 1446 1446 1445 1445 1445 1445 1445 1445 1445 1446 1446 1446 1446 1445 1445 1445 1445 1445 1445 1445 1444 1444 1444 1444 1444 1444 1444 1444 1444 1444 1444 1444 1444 1444 1444 1444
Wind_Speed
13 13 13 13 13 13 13 13 12 12 12 12 12 12 11 11 11 11 11 11 11 10 10 11 11 11 11 12 12 12 12 12 13 13 14 14 15 14 14 14 14 14 15 16 16 16 17 17 17 17 17 16 16 15 15 14 14 14 15 15 16 16 16 16 16 16 16 15 15
13 13 13 13 13 13 13 13 13 12 12 12 12 12 12 12 12 12 12 12 12 12 12 12 12 13 13 13 13 14 14 14 14 15 15 15 15 15 15 14 14 14 15 16 16 16 17 17 17 17 17 16 16 16 15 15 15 15 16 16 17 17 17 17 17 16 16 16 16
13 13 13 13 13 13 13 13 13 13 13 13 13 13 13 13 13 13 13 13 13 13 13 13 14 14 14 14 15 15 15 15 15 16 16 16 16 16 15 15 15 15 15 16 16 16 16 17 17 17 17 16 16 16 16 15 15 16 16 17 18 18 17 17 17 17 16 16 16
13 13 13 13 13 13 13 13 13 13 13 13 13 13 13 14 14 14 14 14 14 14 14 14 15 15 15 15 16 16 16 16 16 16 16 17 16 16 15 15 15 15 15 16 16 16 16 16 17 17 16 16 16 16 16 16 16 17 17 18 18 18 18 18 18 17 17 17 17
14 13 13 13 13 13 13 13 14 14 14 14 14 14 14 14 15 15 15 15 15 15 15 15 15 16 16 16 16 16 16 16 16 16 17 17 16 16 16 15 15 15 15 15 16 16 16 16 17 17 16 16 16 16 16 16 16 17 18 19 19 19 19 18 18 18 18 18 17
14 14 14 14 14 14 14 14 14 14 14 14 14 15 15 15 15 15 15 16 16 16 16 16 16 16 16 17 17 17 17 17 16 17 17 17 16 16 16 16 15 15 15 15 15 16 16 16 17 17 17 16 16 16 16 16 17 18 19 19 20 19 19 19 19 18 18 18 18
14 14 14 14 14 14 14 14 14 15 15 15 15 15 15 15 16 16 16 16 16 16 16 16 16 16 16 17 17 17 17 17 17 17 17 16 16 16 16 16 15 15 15 15 15 16 16 16 17 17 17 17 17 17 17 17 17 18 19 20 20 20 20 19 19 19 19 19 19
14 14 14 15 15 15 15 15 15 15 15 15 16 16 16 16 16 16 16 16 17 17 17 17 16 16 17 17 17 17 17 17 17 17 17 16 16 16 16 16 16 15 15 16 16 16 16 16 17 17 17 17 17 17 17 17 18 18 19 20 20 20 20 20 19 20 20 20 20
14 14 15 15 15 15 15 16 16 16 16 16 16 16 16 17 17 16 17 17 17 17 17 17 17 17 17 17 17 17 17 17 17 17 17 17 17 17 16 16 16 16 16 16 16 16 16 16 17 17 17 17 18 18 18 18 18 18 19 20 20 20 20 20 20 20 20 20 20
14 15 15 15 16 16 16 16 16 16 16 17 17 17 17 17 17 17 17 17 17 17 17 17 17 17 17 17 17 17 17 17 17 17 17 17 17 17 17 16 16 16 16 16 16 16 17 17 17 17 17 17 18 18 18 18 18 19 19 20 20 20 20 20 20 20 20 20 20
14 15 15 16 16 16 16 17 17 17 17 17 17 17 17 18 17 17 18 18 18 18 18 18 17 17 17 17 17 18 18 18 17 17 17 17 17 17 17 17 17 17 17 17 17 17 17 17 17 17 17 18 18 18 18 19 19 19 19 20 20 20 20 21 21 20 20 20 21
14 15 15 16 16 16 17 17 17 17 18 18 18 18 18 18 18 18 18 18 18 18 18 18 18 18 18 18 18 18 18 18 18 18 18 18 18 18 18 18 18 18 17 17 18 18 18 18 18 18 18 18 18 18 19 19 19 19 19 20 20 20 20 20 21 21 20 21 21
14 15 15 16 16 16 17 17 17 18 18 18 18 18 18 18 19 19 19 19 18 18 18 19 18 18 18 18 18 18 18 18 18 18 18 18 18 18 18 18 18 18 18 18 18 18 18 18 18 19 19 19 19 19 19 19 19 19 19 19 20 20 20 20 20 20 20 21 21
13 14 14 15 16 16 17 17 17 18 18 18 19 19 19 19 19 19 19 19 19 19 19 19 19 19 19 19 19 19 19 19 19 19 19 19 19 19 19 19 19 19 19 19 19 19 19 19 19 19 19 19 19 19 19 19 19 19 19 19 20 20 20 20 20 20 20 21 21
12 12 13 14 14 15 16 16 17 17 18 18 19 19 19 19 19 19 19 19 19 19 19 20 19 19 19 19 19 19 19 20 20 19 19 19 20 20 20 19 19 19 19 19 19 20 20 20 20 20 20 19 19 19 19 19 19 19 19 19 19 20 20 20 20 20 20 21 21
11 11 12 12 13 13 14 15 15 16 17 18 18 19 19 19 20 20 20 20 20 20 20 20 20 20 20 20 20 20 20 20 20 20 20 20 20 20 20 20 20 20 20 20 20 20 20 20 20 20 20 20 20 20 19 19 19 19 19 19 19 19 19 20 20 20 20 20 21
11 11 11 12 12 12 13 13 14 15 16 17 18 18 19 19 20 20 20 20 20 20 20 20 21 21 21 21 21 21 21 21 21 21 20 20 20 21 21 21 21 21 21 21 21 20 20 20 20 20 20 20 20 20 20 19 19 19 19 19 19 19 19 20 20 20 20 20 21
10 11 11 11 11 12 12 13 14 14 15 16 17 18 18 19 20 20 20 20 21 21 21 21 21 21 21 21 21 21 21 21 21 21 21 21 21 21 21 21 21 21 21 21 21 21 21 21 20 20 20 20 20 20 19 19 19 19 19 19 19 19 19 20 20 20 20 20 20
10 11 11 11 11 12 12 13 13 14 15 15 16 17 18 18 19 19 20 20 20 21 21 21 21 22 22 22 22 22 22 22 22 22 22 21 21 22 22 22 22 21 21 21 21 21 21 21 20 20 20 20 20 20 19 19 19 19 19 19 19 19 19 20 20 20 20 20 20
11 11 11 11 12 12 12 13 13 14 14 15 15 16 17 17 18 18 19 19 20 20 21 21 21 22 22 22 22 22 22 22 22 22 22 22 22 22 22 22 22 22 22 22 21 21 21 21 20 20 20 20 20 19 19 19 19 19 19 19 19 19 19 19 20 19 19 19 19
12 12 12 12 12 12 12 13 13 14 14 14 15 15 16 17 17 18 18 19 19 20 20 21 21 21 22 22 22 22 23 23 23 22 22 22 22 22 22 22 22 22 22 22 22 21 21 21 20 20 20 20 20 19 19 19 19 19 19 19 19 19 19 19 19 19 19 19 19
14 13 14 14 14 14 14 13 13 14 14 14 14 15 15 16 17 17 18 18 19 19 20 20 20 21 21 22 22 22 23 23 23 23 23 22 22 22 22 22 22 22 22 22 22 21 21 21 20 20 20 20 20 19 19 19 19 19 19 19 19 19 19 19 19 18 18 18 18
16 15 15 16 16 16 15 15 15 14 14 14 14 15 15 16 16 17 18 18 19 19 19 20 20 20 21 21 22 22 22 23 23 23 23 23 22 23 23 23 23 22 22 22 22 21 21 21 20 20 20 20 20 19 19 19 19 19 19 19 19 19 19 19 18 18 18 18 18
18 18 18 18 18 18 18 17 16 15 15 14 14 15 15 16 16 17 17 18 18 19 19 19 20 20 20 21 21 22 22 22 22 22 22 22 22 22 23 23 23 22 22 22 21 21 21 21 20 20 20 20 19 19 19 19 19 19 19 19 19 19 19 18 18 18 17 17 17
20 20 20 20 20 20 20 19 18 17 16 16 15 16 16 16 16 17 17 18 18 18 19 19 19 20 20 21 21 21 22 22 22 22 22 22 22 22 22 23 23 22 22 22 21 21 21 21 21 20 20 20 19 19 19 19 19 19 19 19 19 19 18 18 18 17 17 17 17
21 21 21 21 21 21 21 21 20 19 18 18 17 17 17 17 17 17 17 17 18 18 18 19 19 19 20 20 21 21 21 21 21 22 22 22 22 22 22 22 22 22 22 21 21 21 21 21 21 20 20 20 19 19 19 20 20 20 20 19 19 19 18 18 17 17 17 17 16
21 22 22 22 22 23 23 22 22 21 20 19 19 18 18 18 18 18 18 17 17 18 18 18 19 19 20 20 20 21 21 21 21 21 22 22 22 22 22 22 22 22 21 21 21 21 21 21 21 21 20 20 19 19 19 19 20 20 20 20 19 18 18 17 17 17 17 17 16
20 21 22 23 23 24 24 24 23 23 22 21 20 20 20 20 20 19 18 18 18 18 18 18 18 19 19 20 20 20 20 20 21 21 21 22 22 22 22 22 21 21 21 21 21 21 21 21 21 21 21 20 20 19 19 19 19 20 19 19 19 18 17 17 17 16 16 16 16
19 20 21 22 23 24 25 25 25 24 23 23 22 22 22 22 21 20 19 18 18 18 18 18 18 19 19 19 19 20 20 20 21 21 21 22 22 22 21 21 21 21 20 21 21 21 21 20 20 20 20 20 20 20 19 19 19 19 19 18 18 17 17 16 16 16 16 16 17
17 18 19 20 22 23 24 25 25 25 25 24 24 24 23 23 23 22 21 20 19 18 18 18 19 19 19 19 19 19 20 20 20 21 21 21 21 21 21 20 20 20 20 20 21 20 20 20 20 19 19 19 20 20 20 19 19 18 18 18 17 16 16 16 16 16 16 17 17
17 17 18 18 19 21 22 23 24 25 25 25 25 25 25 24 24 23 22 21 20 19 19 19 19 19 19 19 19 19 19 19 20 20 21 21 21 20 20 20 20 20 20 20 20 20 20 20 19 19 19 19 19 20 20 20 19 18 18 17 17 16 16 15 16 16 17 17 18
17 17 17 17 18 18 19 20 22 23 25 26 26 26 26 25 25 23 22 22 21 20 20 20 20 20 19 19 19 19 19 19 19 20 20 20 20 20 20 20 20 20 20 20 20 20 20 19 19 19 19 19 19 19 20 20 19 18 18 17 17 16 16 16 16 16 17 18 18
18 17 17 17 17 17 18 19 20 21 23 25 26 26 26 26 25 24 23 22 21 21 20 20 20 20 20 20 20 20 20 19 19 19 19 20 20 20 20 20 20 19 19 19 20 20 19 19 19 19 19 19 19 19 19 20 19 19 18 18 17 17 16 16 16 17 18 18 18
17 18 18 18 17 17 17 18 19 20 22 24 25 26 26 26 25 24 24 23 22 21 21 20 20 20 20 20 20 20 20 20 19 19 19 19 19 20 20 19 19 18 19 19 19 20 19 19 19 19 19 18 19 19 19 20 20 20 19 19 18 18 17 17 17 18 18 18 19
17 18 18 18 18 18 18 18 19 20 21 23 24 25 26 26 25 25 24 23 23 22 21 21 21 21 21 21 21 20 20 19 19 19 19 19 20 20 20 19 18 18 18 19 19 20 20 19 19 19 19 19 19 19 20 20 20 20 20 19 19 18 18 17 18 18 19 19 19
17 18 19 19 19 19 19 19 19 20 21 22 23 24 24 25 25 24 24 23 23 23 22 21 21 21 21 21 21 20 20 20 19 19 19 20 20 21 20 19 18 18 18 19 20 20 20 20 19 19 19 19 20 20 20 20 20 20 20 20 20 19 18 18 18 19 19 19 20
17 18 19 20 20 20 20 20 20 21 21 22 22 23 23 24 24 24 24 24 24 23 23 22 22 22 21 21 21 21 20 20 20 20 20 21 21 21 21 20 19 18 18 19 20 20 20 20 20 20 20 20 20 21 21 20 21 21 21 21 20 20 19 19 19 19 19 20 20
18 18 19 19 20 20 21 21 21 22 22 22 22 22 22 23 23 24 24 24 24 23 23 22 22 22 21 21 21 21 21 21 21 21 21 21 21 21 21 20 19 19 18 19 20 20 20 21 20 20 20 21 21 21 21 21 21 21 21 21 21 21 20 20 19 20 20 20 20
18 18 19 19 19 20 21 21 22 22 22 22 22 22 22 22 23 23 23 23 23 23 23 23 22 22 22 22 22 22 22 21 21 21 21 21 21 21 21 21 20 19 19 19 20 20 21 21 21 21 21 21 22 22 22 22 22 22 22 22 22 21 21 20 20 20 20 20 20
19 19 19 19 19 19 20 21 21 21 21 22 22 22 22 22 22 22 23 23 23 23 23 23 22 22 22 22 22 22 22 22 22 22 22 21 21 21 21 21 21 20 19 19 20 21 21 21 22 22 22 22 22 22 23 23 23 23 23 22 22 21 21 21 20 21 21 21 20
20 20 19 19 19 19 19 20 20 21 21 21 21 21 22 22 22 23 23 23 23 23 23 23 22 22 22 23 23 23 22 22 22 22 22 22 22 22 22 22 21 21 20 20 20 21 21 22 22 22 22 22 23 23 23 24 24 24 23 22 22 21 21 21 21 21 21 21 20
Wind_Direction
267 266 265 265 265 265 265 266 265 265 264 263 261 260 258 258 258 260 261 262 264 266 268 269 270 270 271 273 275 277 280 282 282 282 281 281 282 283 284 284 284 284 283 283 283 283 284 284 284 284 284 284 284 284 284 283 282 280 279 278 278 278 279 280 280 281 283 283 284
268 267 266 266 265 266 266 265 265 264 263 261 261 259 259 258 258 260 262 263 264 265 267 268 269 271 273 274 276 278 279 280 280 280 279 280 280 281 282 282 281 281 280 280 280 281 282 283 283 283 283 284 284 284 284 284 283 281 279 278 278 278 279 280 280 281 282 282 282
268 267 266 266 266 266 266 265 265 263 262 261 260 260 260 260 261 262 263 264 265 266 267 268 270 272 273 275 276 277 278 278 278 278 278 279 279 280 281 280 279 278 278 278 279 280 281 282 282 283 283 284 284 285 285 285 284 282 280 279 279 279 280 280 281 282 282 281 281
269 268 267 266 266 266 266 265 264 263 262 261 261 261 262 263 264 265 266 268 268 269 269 270 271 273 274 275 275 276 276 277 277 277 277 278 279 279 280 279 278 277 277 277 278 279 280 281 282 282 283 284 285 286 286 286 285 283 281 281 281 281 281 282 282 282 281 281 280
271 269 268 267 266 266 266 265 265 264 264 263 263 264 264 266 267 268 269 271 271 271 272 272 273 273 274 275 275 276 276 276 276 276 277 277 278 279 279 278 277 276 276 277 278 279 280 281 282 282 283 285 285 286 286 286 285 284 283 282 282 282 283 283 283 282 282 280 279
272 271 270 268 268 267 267 267 267 266 266 266 267 267 268 268 269 271 272 273 274 274 274 274 274 274 274 275 275 276 276 276 276 276 276 277 277 278 277 277 276 276 277 278 279 279 280 281 282 283 284 285 286 286 286 286 285 284 283 283 283 283 284 284 284 283 282 280 279
273 273 272 271 270 269 269 269 269 269 269 269 270 271 271 271 272 273 274 275 276 276 276 276 275 275 275 275 276 276 276 276 276 276 275 276 276 276 276 276 276 276 277 278 278 279 280 281 282 283 284 285 286 286 286 285 284 283 283 284 284 284 285 284 284 283 282 280 280
274 274 273 273 272 271 271 271 270 271 271 272 273 274 274 274 275 275 276 277 277 277 277 277 277 276 276 276 276 276 276 276 276 275 275 275 275 275 275 275 275 276 276 277 278 278 279 280 281 282 284 285 285 285 285 285 284 283 283 284 284 285 285 284 283 282 282 281 280
274 274 274 274 273 273 273 272 272 272 273 273 274 275 275 276 277 277 277 277 277 278 278 278 277 277 276 276 276 276 276 276 276 276 275 275 274 274 274 274 274 275 275 275 276 276 277 278 280 281 282 284 284 285 285 284 284 283 283 283 284 284 284 283 283 282 281 281 281
275 274 273 273 273 273 273 273 272 273 273 273 274 275 275 276 277 277 277 277 278 278 278 278 278 277 276 276 276 276 276 276 276 275 275 274 274 273 273 273 273 273 273 273 274 274 276 276 278 279 281 282 283 284 284 284 284 283 283 283 283 283 283 282 282 282 281 281 281
276 275 274 273 272 272 272 272 273 273 273 273 274 274 275 276 277 277 277 277 278 278 278 278 277 277 277 276 276 276 275 275 275 274 274 273 273 273 272 272 272 272 272 272 273 273 274 275 276 278 279 280 281 282 282 282 282 282 281 281 281 281 281 281 281 281 281 281 281
281 278 276 275 274 274 273 274 274 274 274 274 274 275 275 276 276 276 277 277 277 277 277 277 277 277 277 276 276 275 274 274 273 273 273 272 272 272 272 272 272 272 272 272 273 273 274 275 276 277 278 279 279 280 280 280 280 280 280 280 280 280 280 280 280 281 280 280 280
286 284 281 280 278 277 276 276 275 275 275 275 276 276 276 276 276 276 276 277 277 277 277 277 277 276 276 275 275 274 273 273 272 272 271 271 271 271 271 271 272 272 272 272 273 273 274 275 276 276 277 278 278 278 279 279 279 280 279 279 279 279 279 279 279 279 279 279 279
295 291 288 285 283 280 279 277 277 277 277 277 277 277 277 276 276 276 276 276 276 276 276 276 276 276 275 274 274 273 272 272 271 271 270 270 270 271 271 271 271 271 271 272 272 273 273 274 275 275 276 277 277 278 278 278 279 279 279 278 278 278 278 278 278 278 278 278 278
304 300 297 292 289 285 283 280 279 278 277 277 277 277 277 277 276 276 276 276 276 275 275 275 275 275 274 274 273 272 272 271 271 270 270 270 270 270 271 271 271 271 271 271 271 272 272 273 274 275 275 276 276 277 278 278 278 278 278 277 277 277 278 278 277 277 277 278 278
311 309 305 302 298 295 291 287 283 281 279 278 278 278 278 277 277 277 277 276 276 275 275 275 274 274 274 273 272 272 271 271 271 270 270 270 270 270 271 271 271 271 271 271 271 272 272 273 274 275 275 276 276 277 277 278 278 277 277 277 277 277 277 277 277 277 278 279 279
313 313 311 309 307 304 300 296 291 287 284 282 281 280 279 279 279 278 278 277 277 276 275 275 274 274 273 273 272 272 271 271 271 271 270 270 270 270 270 270 271 271 271 271 271 272 272 273 273 274 275 276 276 277 277 278 277 277 277 277 277 276 276 276 277 278 279 280 281
309 310 311 311 310 308 306 302 299 296 292 289 285 284 283 282 281 280 279 279 278 277 277 276 275 275 274 273 273 273 272 272 271 271 270 270 270 269 270 270 270 271 271 271 272 272 272 273 273 274 275 275 276 276 277 277 277 277 277 277 277 276 276 277 277 278 280 282 282
303 305 306 307 307 306 305 304 303 300 298 295 292 289 288 286 285 283 282 281 280 279 278 277 276 276 275 274 274 274 273 273 272 271 270 270 269 269 269 270 270 270 271 271 271 272 272 273 273 274 275 275 276 276 276 276 277 277 277 277 276 276 276 277 278 279 281 282 281
296 298 300 300 300 300 301 301 301 300 300 298 297 294 292 291 289 287 285 284 282 280 279 278 277 277 276 276 275 275 274 274 273 272 271 271 270 270 270 270 270 270 270 271 271 272 272 273 274 274 275 275 275 276 276 276 276 276 276 276 276 276 276 277 278 279 280 280 279
290 292 293 292 292 292 294 295 296 297 298 298 298 297 295 293 292 291 289 287 285 283 281 280 279 278 277 277 276 275 275 274 274 273 272 272 271 271 270 270 270 270 270 271 271 272 272 273 274 274 275 275 275 275 275 275 275 275 275 275 275 275 275 276 277 278 278 277 277
287 287 287 286 286 286 287 288 289 291 293 295 296 296 295 294 293 292 291 289 287 285 284 283 281 280 278 277 276 275 275 275 274 274 273 273 272 272 271 271 271 271 271 271 272 272 273 273 274 274 275 275 275 275 274 274 274 274 274 274 274 274 274 275 276 276 275 275 276
282 282 282 282 282 283 283 284 285 286 289 291 292 292 292 292 292 292 291 290 289 288 287 285 283 282 280 279 277 276 275 275 275 274 274 273 273 273 272 272 271 271 272 272 272 273 273 273 273 274 274 274 274 274 274 273 273 273 273 273 273 273 274 274 274 274 274 275 276
277 277 278 278 280 281 281 282 282 284 285 287 287 288 288 289 289 290 290 290 290 289 288 286 285 283 281 280 279 278 277 276 275 275 274 274 273 273 273 272 272 272 272 272 273 273 273 273 273 273 273 273 273 273 272 272 272 272 272 272 272 273 273 273 273 273 273 275 276
272 272 272 274 276 277 279 280 281 282 283 284 284 284 284 285 286 287 287 288 288 288 287 286 285 284 282 281 280 279 278 277 277 276 275 275 274 273 273 272 272 272 273 273 273 273 272 272 272 272 272 272 272 272 272 272 271 271 271 270 271 271 272 272 272 272 273 275 277
270 269 269 270 271 273 275 277 279 280 281 281 282 282 283 283 283 283 284 285 286 286 286 285 285 284 283 282 281 280 279 279 278 277 276 275 274 273 273 272 272 272 272 272 272 272 272 272 272 272 271 271 271 271 271 271 271 270 270 270 270 270 270 270 271 272 274 276 277
272 271 269 268 268 269 271 273 275 277 279 280 281 282 282 281 280 281 282 283 284 285 285 284 284 283 282 282 281 280 280 279 279 278 276 275 274 273 272 272 272 272 272 271 271 271 271 271 272 272 272 271 270 269 269 269 269 269 269 269 269 269 268 268 270 272 275 278 279
278 276 273 270 268 268 268 269 271 273 276 278 280 281 280 279 279 280 281 283 284 284 284 284 284 283 282 281 281 280 280 279 278 277 276 275 274 273 273 272 272 271 271 270 270 270 271 271 272 273 273 273 272 270 268 267 267 268 268 269 269 268 267 268 270 272 275 278 280
284 281 278 275 272 269 268 267 268 270 272 275 276 277 278 278 278 280 281 283 284 284 284 283 282 281 280 280 280 280 279 277 277 276 276 275 274 274 273 273 272 271 270 270 269 270 270 271 272 272 274 275 274 273 271 268 267 267 268 268 268 268 268 269 271 273 276 278 279
288 286 283 280 277 273 271 269 268 268 269 270 272 273 275 276 278 279 281 282 283 284 283 282 281 280 280 281 280 279 278 277 277 276 276 275 275 274 274 273 272 271 270 269 269 270 270 270 271 271 272 272 274 274 273 271 270 269 268 269 269 269 270 271 273 274 276 278 279
288 287 286 283 280 278 275 272 269 267 266 266 267 269 271 273 276 278 280 281 282 282 281 281 281 282 282 282 281 279 278 277 277 276 275 275 275 274 274 272 271 270 269 269 269 269 270 270 270 270 270 270 270 272 273 273 272 271 270 270 271 271 272 273 274 275 277 278 279
285 285 285 283 282 280 277 274 270 267 264 263 263 265 267 269 272 275 278 279 280 281 281 281 282 283 283 283 282 281 280 278 277 276 276 276 275 274 273 272 271 270 269 269 269 269 269 269 269 269 269 268 268 269 271 273 274 273 273 272 273 273 273 274 274 275 276 278 279
281 281 281 280 279 279 277 274 271 267 264 262 262 262 263 265 268 271 274 276 278 279 280 281 281 281 281 281 281 281 280 280 279 278 277 277 276 275 273 272 271 270 270 269 269 269 268 268 268 268 268 267 267 267 269 272 273 274 274 274 274 274 274 274 274 275 276 277 279
279 278 277 276 276 276 276 274 271 268 265 263 261 261 261 262 264 267 270 273 275 277 278 278 278 279 279 280 280 281 281 282 282 281 279 278 277 276 275 274 273 272 271 269 268 268 268 267 267 267 267 267 266 267 268 271 273 274 274 274 274 274 274 274 274 275 275 277 278
278 277 275 274 274 274 274 273 271 269 266 264 262 261 260 261 262 264 267 270 271 273 274 274 275 276 277 279 280 282 282 283 283 282 280 279 278 277 277 277 276 273 271 269 268 268 267 267 266 266 266 266 266 267 269 271 273 274 275 274 274 274 273 273 273 274 274 275 276
279 278 276 275 274 274 274 274 272 270 268 266 263 262 261 260 261 262 264 266 268 270 271 271 272 273 274 276 279 280 281 282 281 280 279 278 278 278 279 279 277 274 271 269 268 267 267 266 266 266 266 267 267 268 270 271 273 274 274 274 273 273 272 272 272 272 273 274 275
282 281 280 279 278 277 276 276 275 273 271 269 266 264 262 261 260 260 261 263 265 267 268 269 270 271 272 274 276 277 278 278 278 277 277 277 278 279 280 281 279 275 271 268 267 267 266 266 266 266 266 267 268 269 270 271 272 272 273 272 272 272 271 271 271 271 272 273 275
286 285 285 284 282 281 280 279 278 277 275 273 271 268 265 262 260 259 259 260 263 265 266 267 268 269 271 272 273 274 275 275 276 276 277 277 278 279 280 280 279 275 271 268 267 266 266 266 266 266 266 267 268 269 270 270 271 271 271 271 271 271 271 270 270 271 272 273 274
288 288 288 288 287 285 284 283 282 280 279 278 275 272 269 265 262 260 259 259 261 262 264 265 266 267 269 270 271 272 273 274 275 276 277 278 278 279 279 279 278 276 272 269 267 266 266 266 266 266 266 267 268 269 269 270 269 269 270 270 270 270 270 270 270 270 271 272 273
287 288 289 290 290 289 288 286 285 283 282 280 278 276 272 269 264 261 259 258 259 260 262 264 265 266 267 268 269 271 272 274 274 275 276 277 278 277 277 278 278 276 273 270 268 267 266 266 266 266 266 266 267 268 269 269 269 269 269 269 269 269 270 270 270 270 271 271 272
287 287 288 289 290 290 290 289 287 285 283 282 279 277 274 271 266 262 260 259 259 260 262 263 265 266 266 267 269 270 272 273 274 274 275 276 276 276 276 277 277 276 274 271 268 267 266 266 266 266 266 266 267 268 268 269 269 269 268 269 269 269 269 269 269 269 270 271 271